Location: �terpigny
(49.8910°N, 2.9249°E)
Time: 11:28:16
(UTC+00:00)

RS-44 - Pass Details

Date: 05 July 2022
Orbit: 1175 x 1510 km, 82.5° (Epoch: 11 August)

Event Time Altitude Azimuth Distance (km) Brightness Sun altitude
Rises 23:07:01 0° 274° (W) 4,526 ? -16.7°
Reaches altitude 10° 23:13:07 10° 307° (NW) 3,622 ? -16.9°
Maximum altitude 23:15:29 11° 323° (NW) 3,549 ? -16.9°
Drops below altitude 10° 23:17:53 10° 339° (NNW) 3,661 ? -17.0°
Sets 23:24:14 0° 12° (NNE) 4,667 ? -17.1°
